Theta_e
307 308 308 308 309 309 310 311 312 312 313 312 311 310 308 308 309 306 306 312 305 299 300 301 303 299 299 300 297 301 300 302 299 295 294 292 293 295 293 296 294 291 292 293 294 289 286 304 304 296 300 307 308 310
305 305 306 307 308 308 309 309 310 311 312 312 311 310 308 308 309 307 303 311 311 302 299 304 303 305 303 304 301 302 300 301 300 296 296 296 292 295 294 290 301 293 297 295 294 295 303 306 304 307 308 307 309 310
304 305 305 305 306 307 308 309 310 310 311 311 311 309 308 307 309 307 304 307 306 301 301 302 301 308 309 308 310 299 304 305 303 304 297 295 292 297 291 293 296 300 304 299 299 301 304 306 308 309 309 308 309 313
305 306 304 305 305 305 307 308 309 310 310 311 310 309 308 308 309 308 302 305 306 300 294 300 309 305 310 310 308 308 307 308 306 303 297 295 293 301 295 298 296 299 301 300 300 302 304 306 308 309 309 309 309 312
304 305 306 306 306 306 306 307 308 309 310 311 311 309 308 307 308 308 306 305 307 299 295 296 302 304 306 308 307 308 307 304 300 297 296 294 301 300 301 299 298 303 301 298 296 304 303 305 309 309 308 307 308 309
304 305 305 306 307 307 307 307 308 308 310 311 312 310 307 307 308 303 296 304 306 306 296 292 302 301 306 307 306 306 306 304 299 297 297 299 305 301 294 294 302 305 304 306 302 307 307 308 310 310 309 307 308 308
303 304 305 306 307 307 307 308 308 308 309 310 310 308 306 307 304 297 296 300 303 307 296 292 295 302 306 306 305 305 307 303 300 297 296 298 300 301 297 294 302 304 305 305 308 307 305 307 305 310 310 307 309 309
304 304 305 306 305 306 307 307 308 308 309 309 307 306 306 306 302 298 302 304 304 299 298 291 293 298 306 300 299 306 302 302 299 299 300 299 302 302 295 302 304 306 306 307 306 308 307 308 309 310 309 306 306 304
304 304 305 305 305 306 307 307 308 308 307 305 305 305 303 299 295 297 306 306 304 300 293 293 290 293 304 301 303 304 305 297 303 296 298 300 297 295 301 303 304 305 305 305 306 306 307 306 306 308 307 304 304 301
303 303 303 304 305 306 307 307 308 306 304 304 303 295 291 296 305 304 298 294 295 297 296 291 297 292 302 301 300 300 301 296 293 299 303 298 298 304 307 308 307 306 305 305 301 301 302 303 305 304 304 303 304 302
303 303 303 303 304 304 304 304 305 304 303 299 292 291 300 306 299 295 291 289 289 288 291 293 294 293 299 296 298 301 298 298 292 295 296 296 295 303 307 306 307 307 306 304 303 303 304 305 305 305 303 303 303 302
302 302 302 302 303 302 302 303 303 300 299 298 298 301 299 294 291 289 289 293 290 289 296 293 294 295 299 306 300 300 295 297 291 301 297 293 302 306 306 304 304 306 304 302 302 300 301 303 305 307 305 302 303 300
302 301 301 301 301 301 302 303 302 302 301 299 294 291 290 291 285 285 284 290 291 297 299 298 294 297 302 302 297 297 292 292 300 295 292 299 304 305 305 305 304 305 303 301 300 299 298 298 300 302 300 297 297 295
301 300 301 301 301 301 301 301 302 300 296 289 288 283 287 286 288 290 291 294 299 300 299 300 298 297 300 297 297 292 296 297 291 290 292 302 304 304 305 305 303 301 301 299 297 296 295 294 294 294 294 294 294 292
300 300 300 299 299 300 301 301 301 299 293 289 290 284 287 292 294 294 297 296 299 300 300 299 299 300 297 295 296 294 292 290 292 293 301 305 305 306 304 304 302 301 299 297 295 294 293 293 293 292 293 292 292 291
299 298 298 299 299 299 300 299 298 296 291 290 289 286 290 289 290 293 293 293 299 299 302 301 295 293 292 294 291 290 289 289 296 301 303 305 306 306 304 302 302 300 297 295 294 293 292 292 291 291 291 290 290 290
299 296 300 300 300 300 299 294 292 287 289 289 289 293 291 290 290 292 295 296 300 296 292 294 290 289 295 291 290 294 292 298 303 303 305 306 306 304 303 301 300 297 295 293 292 291 290 291 291 289 286 288 289 290
295 299 300 299 299 298 296 294 290 288 286 290 289 292 292 293 291 292 295 297 297 296 295 291 296 290 289 288 291 296 300 306 305 305 305 306 307 303 301 299 298 296 294 292 291 291 290 289 288 287 288 289 289 290
298 300 300 300 299 294 289 290 293 286 289 293 294 295 295 295 296 296 296 298 299 299 297 295 291 291 292 296 296 298 302 303 304 305 305 307 307 303 300 299 298 295 292 292 291 291 291 290 290 291 291 292 291 292
298 299 299 300 299 293 290 290 294 290 289 293 295 293 294 295 297 296 297 296 295 294 292 291 292 295 296 298 301 302 303 305 305 303 303 305 305 303 302 300 297 295 293 293 292 291 290 290 291 291 292 292 291 292
295 297 298 298 295 294 291 292 291 293 293 291 294 293 293 296 294 294 294 297 294 292 290 294 295 297 301 302 303 304 305 306 305 304 304 302 303 302 302 298 299 296 294 293 293 293 292 291 292 292 292 292 293 294
296 296 293 294 291 292 290 295 293 295 293 293 293 294 292 291 292 294 297 293 292 294 295 296 296 298 298 300 301 304 304 306 305 304 300 300 301 301 300 301 299 297 297 297 298 296 296 295 294 294 293 292 293 292
296 294 290 291 288 288 288 297 290 292 288 290 293 290 291 291 294 298 291 294 296 299 299 299 299 301 299 300 301 302 303 304 303 303 306 306 306 305 302 301 301 300 298 299 301 300 298 294 294 294 294 293 292 291
296 291 288 287 289 286 292 289 292 290 290 289 288 287 289 291 295 293 290 292 296 299 299 300 300 298 299 300 299 300 302 304 302 303 306 306 304 302 304 304 304 303 302 303 302 301 300 298 295 294 294 293 292 290
286 286 288 283 290 287 286 285 287 287 285 288 287 287 290 294 290 289 289 292 296 297 299 302 302 301 299 299 300 301 304 303 301 301 309 307 305 304 302 302 303 304 305 302 301 300 299 299 298 297 295 293 291 292
282 287 285 287 287 286 286 284 286 286 287 287 288 291 293 290 287 286 292 297 299 303 304 303 302 302 302 303 302 302 302 305 305 303 309 307 307 304 301 299 297 299 305 305 303 301 299 299 298 297 296 294 289 293
282 286 289 294 292 291 289 291 291 290 286 286 290 289 289 285 286 291 297 302 302 305 307 307 307 304 304 306 307 308 308 308 306 306 312 312 309 308 305 301 298 302 306 307 305 303 300 299 298 297 296 295 294 294
288 290 287 289 290 292 288 288 287 286 289 293 291 287 286 287 288 295 298 304 306 306 304 304 306 305 307 307 306 304 303 308 312 312 313 311 310 308 309 307 306 292 307 308 306 304 302 301 299 298 296 295 295 296
289 292 292 288 289 290 289 288 289 292 295 294 289 288 290 294 298 300 301 303 306 304 302 302 302 305 305 307 308 308 310 311 308 304 303 301 300 303 306 307 305 307 307 304 290 297 302 302 300 298 297 296 297 299
289 293 289 289 288 287 292 295 293 295 296 298 297 296 296 297 302 306 305 304 303 303 304 304 305 303 302 303 303 305 309 311 310 307 304 304 305 307 307 305 305 306 305 304 303 301 287 296 292 298 296 297 298 299
293 292 289 289 288 292 294 296 296 296 296 295 296 294 294 298 302 305 305 305 305 306 305 304 304 305 305 304 304 304 304 309 310 310 311 312 311 309 309 309 308 307 306 304 303 301 300 297 297 296 296 298 298 298
292 290 289 287 289 293 295 293 292 291 292 293 293 295 296 297 295 302 307 306 305 303 294 301 303 303 305 304 308 309 294 310 311 311 310 311 311 310 309 309 307 307 305 303 302 301 300 298 297 297 298 299 300 300
291 291 290 290 289 289 292 291 290 290 291 291 292 294 295 295 293 301 307 307 305 302 303 303 304 305 305 305 305 306 299 311 305 293 294 296 297 302 308 308 307 306 303 302 301 300 300 299 300 300 300 301 301 301
Wind_Speed
19 18 18 20 21 19 18 18 17 17 16 16 15 14 12 11 9 6 7 6 5 8 17 14 12 13 10 9 9 13 10 0 5 7 6 4 4 3 2 3 4 3 5 3 2 2 2 15 10 9 7 9 14 13
20 21 21 21 21 19 20 19 18 17 17 18 17 16 15 12 10 8 7 7 4 7 12 21 21 21 21 15 9 5 9 4 7 5 6 5 5 5 5 3 3 2 1 3 2 2 2 6 1 4 7 13 12 11
20 22 23 23 22 23 19 19 19 18 18 18 19 19 18 15 14 13 8 8 7 10 13 12 12 13 12 13 9 5 6 6 4 5 6 4 5 3 5 5 6 5 3 3 3 4 5 5 7 8 11 13 15 6
19 21 23 24 24 24 22 19 19 19 18 19 20 20 20 18 15 15 7 6 5 6 7 4 2 3 8 9 11 10 9 6 4 5 5 6 5 7 7 12 11 9 5 5 2 3 2 7 3 9 10 11 12 11
21 21 22 22 22 24 25 22 19 19 19 19 20 21 18 15 12 8 8 7 9 6 6 10 20 20 17 13 13 10 8 6 3 4 4 7 7 5 9 7 9 5 4 4 3 8 4 8 7 9 8 8 8 7
19 21 22 22 23 22 22 21 19 18 18 19 20 19 18 16 12 3 4 8 9 8 5 6 7 8 8 17 14 11 7 5 3 3 6 6 15 5 4 6 10 6 0 3 6 8 6 7 6 6 6 4 3 3
21 21 22 22 23 23 23 22 20 19 18 17 16 17 17 16 8 4 2 3 8 5 4 7 6 7 10 10 9 8 6 4 4 3 7 12 10 4 6 12 15 2 2 2 6 5 8 3 7 4 4 2 1 4
19 19 20 20 23 25 24 22 20 19 18 13 15 13 13 13 2 4 4 5 5 2 5 5 6 6 14 8 10 7 5 5 6 6 8 9 2 3 6 8 5 3 4 8 3 7 8 8 7 6 7 2 3 9
16 17 18 18 20 22 21 19 19 18 15 16 13 10 4 2 3 3 12 13 4 4 4 6 4 3 8 8 5 4 4 6 5 5 6 2 4 8 9 5 3 4 6 8 11 13 12 8 8 9 8 5 6 8
17 18 18 18 17 14 12 16 11 17 18 18 7 2 2 4 17 11 3 6 6 5 7 7 8 7 10 8 9 6 5 5 5 7 4 6 11 16 13 4 2 3 5 7 10 10 11 12 1 5 6 8 4 8
18 17 17 15 11 5 1 8 14 18 15 3 4 4 1 15 3 4 5 7 6 6 7 8 15 11 5 7 5 4 4 4 4 5 5 4 7 3 10 5 5 7 5 5 6 8 9 10 12 7 8 8 6 5
16 15 15 13 10 7 5 9 16 7 1 4 3 4 3 3 5 6 6 7 9 8 12 8 10 13 8 3 4 3 4 4 6 5 4 5 5 8 7 7 7 5 3 4 5 6 8 10 15 12 10 8 8 8
13 12 10 9 8 7 7 15 17 11 7 3 1 4 5 6 9 9 11 8 7 7 7 9 10 8 4 3 1 4 6 7 5 4 4 2 9 6 5 7 7 4 2 2 3 4 6 7 10 7 9 8 10 10
14 14 16 11 10 11 12 11 11 12 2 3 4 5 5 7 8 8 10 4 4 7 6 8 9 5 4 7 6 6 7 6 5 7 9 7 6 7 4 4 8 6 3 3 3 4 5 4 5 7 7 7 10 11
13 12 9 9 7 6 13 14 17 4 3 4 4 6 9 8 6 6 10 9 6 5 9 6 5 3 7 6 6 5 5 7 6 4 5 7 4 3 4 6 6 4 4 4 3 3 4 4 5 7 8 8 10 11
10 4 6 8 10 11 11 9 5 2 2 3 5 4 4 5 6 9 9 8 4 7 5 1 2 3 5 5 6 8 5 4 3 5 5 5 3 2 9 8 8 5 6 6 5 4 5 6 8 9 10 10 10 12
9 4 13 13 12 14 14 3 3 4 4 5 6 9 6 6 6 4 8 4 2 3 2 1 5 8 3 3 7 4 9 3 5 5 5 5 4 11 11 9 8 7 8 7 7 6 6 7 9 10 11 10 11 12
5 8 9 14 10 6 2 2 2 4 7 8 7 6 8 6 7 8 7 6 2 4 2 2 6 1 4 4 3 5 2 4 4 6 6 6 10 11 10 10 9 8 9 8 7 7 7 8 8 7 11 12 12 11
6 3 13 16 9 4 3 5 3 4 9 7 8 6 8 9 9 8 9 8 7 5 3 3 3 5 5 3 5 3 3 4 3 3 5 7 9 12 12 11 11 10 9 8 8 5 6 7 6 6 6 6 7 8
7 3 5 19 10 3 4 3 3 6 6 3 5 7 8 8 8 8 9 8 7 8 8 5 5 5 7 6 7 8 3 1 5 5 4 7 3 13 11 10 8 11 8 9 8 8 8 7 5 5 5 6 8 8
5 4 6 8 3 2 3 3 6 5 4 9 10 7 6 6 7 8 9 8 9 10 11 9 8 8 12 8 3 1 6 2 2 3 3 6 4 6 8 10 11 11 8 8 9 9 10 6 7 7 6 7 7 7
4 8 2 1 3 6 4 5 4 6 4 6 6 4 6 7 7 9 9 9 11 10 9 9 11 11 11 13 10 8 4 5 4 6 6 8 5 2 8 9 10 10 10 10 10 9 9 10 10 9 9 9 9 9
9 4 2 4 4 5 6 4 5 4 4 3 5 5 7 9 8 8 6 9 12 12 11 11 13 14 11 12 13 11 11 9 7 6 8 6 9 5 6 9 6 6 8 10 10 12 12 12 10 10 11 11 10 10
5 5 3 3 5 5 4 4 3 5 5 8 10 12 11 8 6 5 7 8 8 8 9 10 10 10 11 15 11 10 10 9 9 8 8 6 8 4 2 2 8 7 7 6 8 11 13 13 13 12 12 13 13 11
4 6 4 5 6 5 6 5 10 8 12 12 12 10 5 4 4 7 11 10 9 8 7 8 6 6 9 10 9 9 10 9 9 9 10 9 6 6 6 3 2 6 8 7 7 11 10 12 11 13 14 14 15 15
6 8 7 8 6 7 7 9 8 12 10 12 6 4 3 4 9 7 2 5 6 5 2 3 4 4 6 7 8 7 6 9 9 6 10 9 11 12 10 9 5 3 7 7 9 13 13 13 13 15 13 15 11 15
4 7 7 7 4 7 4 6 5 3 4 4 4 3 3 4 4 5 7 6 5 3 3 1 2 2 3 4 3 7 6 8 10 8 9 9 10 10 11 13 12 10 12 11 7 12 14 13 14 14 14 13 13 13
6 4 9 9 7 5 8 3 4 5 3 4 2 3 5 5 3 4 3 5 5 5 1 1 0 2 2 3 2 2 5 9 12 11 7 8 8 7 10 10 10 8 8 11 11 12 12 12 13 14 15 14 13 12
7 5 4 7 7 4 5 3 2 2 3 0 1 1 3 3 4 5 7 7 8 6 3 0 1 3 3 3 6 9 12 7 12 16 13 8 5 5 5 9 9 9 8 8 7 11 15 13 13 13 15 12 11 10
9 7 6 6 8 5 0 2 2 4 1 4 4 3 6 7 6 6 4 5 4 5 1 2 4 4 3 2 2 2 2 5 4 3 7 9 9 10 11 10 9 9 10 11 11 10 9 12 10 11 12 11 11 11
4 4 4 4 4 4 4 3 5 6 6 7 6 8 8 5 6 4 3 5 3 1 2 3 3 3 3 1 2 3 4 5 7 7 7 5 9 11 12 12 11 10 9 12 13 13 13 13 12 14 16 16 17 14
4 6 5 7 6 5 6 5 6 7 9 8 8 8 7 3 5 1 1 1 2 3 2 2 4 3 4 4 4 2 2 3 5 6 8 7 9 9 11 11 9 8 12 14 14 15 17 17 15 16 16 18 18 17
5 5 5 5 4 5 5 6 6 9 8 9 9 9 7 3 2 2 3 4 4 4 4 4 4 3 4 4 4 4 2 3 2 1 5 6 9 9 10 11 12 12 16 14 15 16 19 20 17 18 17 17 17 16
Wind_Direction
293 292 291 292 293 292 287 283 279 269 246 233 237 239 246 253 250 253 289 255 279 286 293 290 309 295 286 285 307 337 306 323 316 352 344 330 294 343 291 235 306 303 322 2 294 333 358 356 4 34 302 303 322 330
294 293 291 291 289 288 289 287 281 273 258 238 226 227 228 236 220 228 270 188 222 253 279 304 287 272 263 272 298 274 293 323 26 318 6 335 312 294 299 300 223 257 17 330 340 359 237 45 67 250 318 320 330 324
293 292 291 290 290 289 285 283 279 276 269 247 229 218 221 221 212 205 275 312 285 273 276 265 254 234 214 222 229 272 43 1 51 356 322 288 277 288 293 301 340 320 118 253 310 210 324 58 351 17 354 344 325 276
290 288 288 288 288 287 283 278 280 279 272 259 235 220 213 215 210 201 227 258 288 280 278 309 131 237 196 196 207 226 264 301 325 299 286 273 278 293 303 296 298 302 281 284 71 10 290 214 315 11 4 355 350 333
287 290 289 287 284 283 283 277 271 274 274 265 243 225 218 217 213 206 237 251 250 252 305 308 306 271 235 190 203 213 226 249 287 284 229 263 286 304 275 277 272 324 352 315 285 343 299 328 359 24 16 354 347 342
290 290 289 285 281 277 274 269 268 271 271 269 250 214 203 200 185 172 263 209 233 228 271 286 340 262 204 195 197 207 212 195 197 290 283 257 247 272 294 281 273 231 90 329 289 353 2 341 322 37 17 5 320 334
293 295 294 291 287 279 273 269 266 268 268 269 227 196 197 200 171 179 227 313 315 127 257 274 266 167 188 182 201 211 129 188 213 236 229 253 266 186 253 264 277 219 220 247 268 295 286 197 320 1 85 305 153 201
285 292 291 294 296 288 271 261 260 260 266 214 176 184 194 194 163 272 228 243 299 192 244 259 262 258 176 193 219 158 180 182 204 242 258 264 205 204 253 259 209 225 281 270 317 301 275 265 262 138 123 165 105 130
285 288 293 297 303 300 272 252 253 264 177 151 157 171 153 174 187 220 193 174 244 265 250 226 233 290 157 215 181 164 196 214 204 228 233 250 234 225 236 271 105 330 350 329 315 308 302 347 350 152 138 149 146 141
281 284 292 296 300 321 289 252 220 148 143 140 128 135 203 209 127 103 86 165 206 209 229 256 227 243 189 190 183 175 180 222 228 219 214 211 252 255 231 112 81 2 353 358 324 322 328 310 4 181 188 124 132 166
278 281 284 290 294 289 145 134 141 134 145 171 158 200 184 147 190 173 195 199 173 221 213 227 222 222 256 246 177 226 191 219 233 234 212 231 258 194 137 130 67 68 29 1 329 323 312 313 302 171 169 158 137 141
276 281 283 274 261 241 209 170 160 158 204 145 137 91 97 199 227 200 208 208 194 230 178 215 201 202 229 158 170 193 227 242 236 172 198 238 103 112 119 95 95 88 49 5 10 340 330 328 324 146 158 147 146 136
266 273 249 242 241 242 240 211 196 139 93 44 221 174 183 174 221 220 199 203 208 200 193 173 164 180 166 188 112 204 213 238 224 197 227 51 125 132 148 138 123 111 56 13 34 23 12 6 10 88 115 101 105 97
253 260 261 245 249 240 223 187 178 136 128 188 183 215 235 190 232 221 243 274 324 343 291 194 150 161 187 180 203 205 207 243 219 230 230 133 150 117 137 110 125 91 52 44 40 56 51 51 72 84 98 114 115 110
250 240 214 218 214 250 186 189 174 186 209 215 210 225 221 257 293 313 304 292 293 334 293 147 179 214 188 207 209 233 216 222 224 218 70 113 124 142 124 133 113 129 108 95 101 95 97 99 109 106 100 100 107 108
228 265 221 202 205 206 193 156 161 125 252 232 225 243 282 271 260 258 267 272 234 263 271 111 128 271 212 232 212 206 218 242 75 89 105 138 163 80 113 112 98 95 103 101 101 110 116 122 113 108 108 104 104 109
198 232 178 176 189 194 153 122 156 179 229 239 225 205 220 271 283 309 300 248 71 288 244 224 201 214 218 225 219 232 250 31 86 66 45 72 78 115 124 108 114 112 108 108 111 100 93 92 114 111 109 110 112 113
212 206 193 181 175 163 93 177 181 215 228 241 249 200 195 213 257 269 273 292 225 301 178 251 318 240 248 216 197 236 164 100 83 98 92 83 104 123 120 117 115 114 112 115 117 116 109 103 104 109 116 121 118 117
225 228 174 183 176 126 181 186 217 249 224 241 225 243 215 234 229 247 241 242 259 162 275 194 264 258 206 297 268 183 268 70 109 108 89 107 141 124 124 128 116 114 113 123 130 121 114 109 105 107 115 121 122 133
243 233 186 170 168 210 185 193 236 243 264 224 262 246 238 253 256 230 242 244 241 251 222 219 223 280 298 29 351 351 62 202 152 139 118 104 95 136 143 128 122 125 126 130 122 124 121 117 112 111 111 114 120 121
109 198 178 170 186 284 289 233 222 254 257 254 260 266 264 253 256 246 239 230 231 234 247 248 247 256 274 293 280 253 263 127 46 47 119 144 130 154 139 130 135 135 148 145 151 144 145 140 142 135 129 124 125 121
113 109 89 86 225 183 250 245 258 304 268 249 261 240 249 251 247 243 238 236 232 235 236 240 241 251 250 249 255 251 205 161 243 123 135 137 132 138 160 161 160 159 161 163 156 164 136 135 141 150 139 134 136 130
103 129 141 193 205 189 254 244 243 231 249 258 241 236 240 242 243 253 243 218 230 238 233 237 239 244 258 265 266 240 229 193 225 225 153 179 172 175 170 158 179 164 163 164 161 144 142 142 149 145 144 154 144 145
191 165 173 200 218 214 241 210 237 250 245 259 269 267 272 274 265 256 258 268 268 254 255 249 222 225 222 221 243 247 222 215 218 220 152 134 145 140 197 188 167 171 155 172 157 134 143 162 166 145 160 147 150 166
164 187 208 222 220 212 193 203 228 247 252 256 265 261 261 268 262 267 269 266 256 234 235 230 222 256 260 240 216 229 227 214 217 215 144 142 132 173 155 102 149 163 150 178 171 137 153 148 157 157 156 153 163 174
221 194 196 207 191 209 211 239 222 231 245 253 248 264 263 288 262 246 283 338 340 5 127 191 204 251 260 247 236 221 235 214 213 181 142 149 168 174 161 160 147 178 209 210 176 150 157 164 159 162 162 153 168 160
240 209 198 231 218 221 237 241 237 196 250 258 265 304 315 237 247 40 330 2 358 27 61 93 242 232 252 259 278 297 303 286 179 193 143 180 175 178 172 170 169 181 209 201 204 161 162 169 162 161 154 159 174 165
252 273 212 202 221 242 247 237 283 303 323 20 74 293 329 339 331 352 293 326 337 324 3 290 358 236 185 155 113 4 332 302 114 107 141 135 157 170 175 167 173 201 194 197 186 167 164 170 161 164 160 164 171 165
241 257 211 223 219 190 242 254 211 128 186 100 120 272 283 285 242 260 297 300 304 295 292 331 115 285 244 160 146 193 221 160 145 146 152 135 146 191 199 160 171 204 201 153 146 161 172 163 162 158 163 162 162 158
243 238 245 239 241 215 93 273 276 332 326 170 191 260 282 278 281 312 287 279 268 267 350 315 288 235 224 214 201 186 237 120 114 164 166 172 174 162 157 151 181 183 160 157 158 131 115 133 127 142 157 168 168 170
222 235 204 226 281 278 260 256 270 270 267 266 257 254 278 317 316 295 256 256 261 78 43 350 7 9 345 299 227 226 203 157 153 219 216 149 161 150 149 172 179 173 171 164 163 157 157 156 159 164 176 178 174 179
210 221 245 258 266 268 271 270 284 289 283 270 256 249 250 239 275 253 338 33 24 86 47 22 60 32 56 18 338 271 265 225 191 164 180 165 162 166 161 165 180 197 163 167 158 162 170 169 171 177 182 184 177 189
218 221 220 240 254 253 255 253 259 268 244 242 251 259 270 249 267 98 77 56 65 67 54 37 336 335 346 326 337 334 298 269 79 250 101 134 166 159 163 171 183 186 164 166 163 169 176 177 176 182 184 184 179 190